timestamp,wind_dir_avg,wind_spd_avg,wind_spd_max_dir,wind_spd_gust,battery_voltage,lat,long
2022-10-07 00:04:00+00:00,44.0,3.19,45.0,3.61,12.57,47.59359,-54.27349
2022-10-07 00:14:01+00:00,45.0,3.3,42.0,3.69,12.57,47.59359,-54.27349
2022-10-07 00:24:01+00:00,36.0,3.42,36.0,3.84,12.57,47.59359,-54.27349
2022-10-07 00:34:01+00:00,42.0,3.98,42.0,4.48,12.57,47.59359,-54.27349
2022-10-07 00:44:01+00:00,42.0,3.79,46.0,4.08,12.57,47.59359,-54.27349
2022-10-07 00:54:01+00:00,47.0,4.12,47.0,4.4,12.57,47.59359,-54.27349
2022-10-07 01:04:01+00:00,40.0,3.75,43.0,3.97,12.57,47.59359,-54.27349
2022-10-07 01:14:00+00:00,45.0,4.52,45.0,4.84,12.49,47.59359,-54.27349
2022-10-07 01:24:00+00:00,45.0,4.15,48.0,4.57,12.49,47.59359,-54.27349
2022-10-07 01:34:00+00:00,50.0,4.36,53.0,4.67,12.49,47.59359,-54.27349
2022-10-07 01:44:00+00:00,44.0,3.96,42.0,4.38,12.49,47.59359,-54.27349
2022-10-07 01:54:00+00:00,46.0,4.23,45.0,4.74,12.49,47.59359,-54.27349
2022-10-07 02:04:00+00:00,48.0,4.37,53.0,5.14,12.49,47.59359,-54.27349
2022-10-07 02:14:01+00:00,55.0,4.76,56.0,4.98,12.49,47.59359,-54.27349
2022-10-07 02:24:01+00:00,50.0,4.58,50.0,4.94,12.49,47.59359,-54.27349
2022-10-07 02:34:01+00:00,57.0,4.27,57.0,4.67,12.49,47.59359,-54.27349
2022-10-07 02:44:01+00:00,51.0,4.46,52.0,4.89,12.49,47.59359,-54.27349
2022-10-07 02:54:01+00:00,38.0,4.36,38.0,4.78,12.49,47.59359,-54.27349
2022-10-07 03:04:01+00:00,27.0,4.5,28.0,4.9,12.49,47.59359,-54.27349
2022-10-07 03:14:00+00:00,36.0,4.03,36.0,4.45,12.49,47.59359,-54.27349
2022-10-07 03:24:00+00:00,29.0,3.35,32.0,3.72,12.49,47.59359,-54.27349
2022-10-07 03:34:00+00:00,37.0,5.0,37.0,5.35,12.49,47.59359,-54.27349
2022-10-07 03:44:00+00:00,34.0,3.62,39.0,4.21,12.49,47.59359,-54.27349
2022-10-07 03:54:00+00:00,44.0,4.79,44.0,5.19,12.49,47.59359,-54.27349
2022-10-07 04:04:00+00:00,47.0,5.52,44.0,5.82,12.49,47.59359,-54.27349
2022-10-07 04:14:00+00:00,41.0,4.95,39.0,5.26,12.49,47.59359,-54.27349
2022-10-07 04:24:00+00:00,41.0,4.63,41.0,4.97,12.49,47.59359,-54.27349
2022-10-07 04:34:00+00:00,41.0,5.47,42.0,5.81,12.49,47.59359,-54.27349
2022-10-07 04:44:00+00:00,41.0,4.95,43.0,5.3,12.49,47.59359,-54.27349
2022-10-07 04:54:00+00:00,48.0,5.69,49.0,5.96,12.49,47.59359,-54.27349
2022-10-07 05:04:00+00:00,51.0,5.88,51.0,6.72,12.49,47.59359,-54.27349
2022-10-07 05:14:01+00:00,50.0,5.48,50.0,6.14,12.49,47.59359,-54.27349
2022-10-07 05:24:01+00:00,49.0,5.17,43.0,5.89,12.49,47.59359,-54.27349
2022-10-07 05:34:01+00:00,43.0,6.06,49.0,6.72,12.49,47.59359,-54.27349
2022-10-07 05:44:01+00:00,39.0,6.49,37.0,6.95,12.49,47.59359,-54.27349
2022-10-07 05:54:01+00:00,43.0,5.97,43.0,6.39,12.49,47.59359,-54.27349
2022-10-07 06:04:01+00:00,44.0,5.66,42.0,6.09,12.49,47.59359,-54.27349
2022-10-07 06:14:00+00:00,40.0,5.43,39.0,5.84,12.41,47.59359,-54.27349
2022-10-07 06:24:00+00:00,44.0,5.79,43.0,6.14,12.41,47.59359,-54.27349
2022-10-07 06:34:00+00:00,41.0,5.36,43.0,5.79,12.41,47.59359,-54.27349
2022-10-07 06:44:00+00:00,54.0,4.83,47.0,5.47,12.41,47.59359,-54.27349
2022-10-07 06:54:00+00:00,55.0,4.72,56.0,5.16,12.41,47.59359,-54.27349
2022-10-07 07:04:00+00:00,61.0,4.61,68.0,5.29,12.41,47.59359,-54.27349
2022-10-07 07:14:00+00:00,59.0,4.41,59.0,4.95,12.41,47.59359,-54.27349
2022-10-07 07:24:00+00:00,56.0,4.86,56.0,5.2,12.41,47.59359,-54.27349
2022-10-07 07:34:00+00:00,52.0,4.78,46.0,5.41,12.41,47.59359,-54.27349
2022-10-07 07:44:00+00:00,56.0,4.98,56.0,5.35,12.41,47.59359,-54.27349
2022-10-07 07:54:00+00:00,44.0,5.04,43.0,5.35,12.41,47.59359,-54.27349
2022-10-07 08:04:00+00:00,35.0,5.09,33.0,5.69,12.41,47.59359,-54.27349
2022-10-07 08:14:01+00:00,44.0,5.21,46.0,5.66,12.41,47.59359,-54.27349
2022-10-07 08:24:01+00:00,49.0,4.73,51.0,5.27,12.41,47.59359,-54.27349
2022-10-07 08:34:01+00:00,39.0,5.93,38.0,6.5,12.41,47.59359,-54.27349
2022-10-07 08:44:01+00:00,39.0,5.29,39.0,5.91,12.41,47.59359,-54.27349
2022-10-07 08:54:01+00:00,40.0,6.01,40.0,6.52,12.41,47.59359,-54.27349
2022-10-07 09:04:01+00:00,38.0,6.37,36.0,6.88,12.41,47.59359,-54.27349
2022-10-07 09:14:01+00:00,40.0,6.8,40.0,7.17,12.33,47.59359,-54.27349
2022-10-07 09:24:01+00:00,35.0,6.32,36.0,6.92,12.33,47.59359,-54.27349
2022-10-07 09:34:01+00:00,41.0,5.52,40.0,6.12,12.33,47.59359,-54.27349
2022-10-07 09:44:01+00:00,36.0,5.26,34.0,5.89,12.33,47.59359,-54.27349
2022-10-07 09:54:01+00:00,27.0,6.0,27.0,6.65,12.33,47.59359,-54.27349
2022-10-07 10:04:01+00:00,24.0,5.51,22.0,6.0,12.33,47.59359,-54.27349
2022-10-07 10:14:00+00:00,17.0,5.25,19.0,5.94,12.33,47.59359,-54.27349
2022-10-07 10:24:00+00:00,26.0,5.21,26.0,5.82,12.33,47.59359,-54.27349
2022-10-07 10:34:00+00:00,29.0,5.67,28.0,6.14,12.33,47.59359,-54.27349
2022-10-07 10:44:00+00:00,27.0,4.94,30.0,5.55,12.33,47.59359,-54.27349
2022-10-07 10:54:00+00:00,28.0,5.39,30.0,5.97,12.33,47.59359,-54.27349
2022-10-07 11:04:00+00:00,35.0,6.22,38.0,6.66,12.33,47.59359,-54.27349
2022-10-07 11:14:01+00:00,38.0,5.7,39.0,6.37,12.33,47.59359,-54.27349
2022-10-07 11:24:01+00:00,33.0,5.78,32.0,6.35,12.33,47.59359,-54.27349
2022-10-07 11:34:01+00:00,31.0,6.08,30.0,6.59,12.33,47.59359,-54.27349
2022-10-07 11:44:01+00:00,35.0,6.76,35.0,7.28,12.33,47.59359,-54.27349
2022-10-07 11:54:01+00:00,34.0,6.96,34.0,7.61,12.33,47.59359,-54.27349
2022-10-07 12:04:01+00:00,37.0,7.12,42.0,8.5,12.33,47.59359,-54.27349
2022-10-07 12:14:00+00:00,42.0,8.34,49.0,10.59,13.68,47.59359,-54.27349
2022-10-07 12:24:00+00:00,41.0,9.17,51.0,11.74,13.68,47.59359,-54.27349
2022-10-07 12:34:00+00:00,45.0,9.46,55.0,12.16,13.68,47.59359,-54.27349
2022-10-07 12:44:00+00:00,43.0,9.29,48.0,11.5,13.68,47.59359,-54.27349
2022-10-07 12:54:00+00:00,45.0,8.71,55.0,11.35,13.68,47.59359,-54.27349
2022-10-07 13:04:00+00:00,36.0,7.87,47.0,9.45,13.68,47.59359,-54.27349
2022-10-07 13:14:01+00:00,36.0,5.97,37.0,6.65,13.6,47.59359,-54.27349
2022-10-07 13:24:01+00:00,41.0,5.86,38.0,6.57,13.6,47.59359,-54.27349
2022-10-07 13:34:01+00:00,37.0,5.99,35.0,6.6,13.6,47.59359,-54.27349
2022-10-07 13:44:01+00:00,42.0,6.08,44.0,6.49,13.6,47.59359,-54.27349
2022-10-07 13:54:01+00:00,41.0,5.22,45.0,5.93,13.6,47.59359,-54.27349
2022-10-07 14:04:01+00:00,49.0,4.74,46.0,5.44,13.6,47.59359,-54.27349
2022-10-07 14:14:01+00:00,48.0,4.35,46.0,4.97,14.24,47.59359,-54.27349
2022-10-07 14:24:01+00:00,47.0,5.26,47.0,5.68,14.24,47.59359,-54.27349
2022-10-07 14:34:01+00:00,44.0,5.68,43.0,6.3,14.24,47.59359,-54.27349
2022-10-07 14:44:01+00:00,56.0,4.8,59.0,5.45,14.24,47.59359,-54.27349
2022-10-07 14:54:01+00:00,47.0,4.06,51.0,4.59,14.24,47.59359,-54.27349
2022-10-07 15:04:01+00:00,44.0,4.46,45.0,4.98,14.24,47.59359,-54.27349
2022-10-07 15:14:00+00:00,44.0,5.23,45.0,5.59,13.92,47.59359,-54.27349
2022-10-07 15:24:00+00:00,48.0,5.8,45.0,6.29,13.92,47.59359,-54.27349
2022-10-07 15:34:00+00:00,40.0,6.31,41.0,6.76,13.92,47.59359,-54.27349
2022-10-07 15:44:00+00:00,39.0,6.93,35.0,7.86,13.92,47.59359,-54.27349
2022-10-07 15:54:00+00:00,39.0,7.44,39.0,8.37,13.92,47.59359,-54.27349
2022-10-07 16:04:00+00:00,37.0,7.23,39.0,8.09,13.92,47.59359,-54.27349
2022-10-07 16:14:00+00:00,39.0,7.6,43.0,8.24,13.92,47.59359,-54.27349
2022-10-07 16:24:00+00:00,42.0,6.78,45.0,7.68,13.92,47.59359,-54.27349
2022-10-07 16:34:00+00:00,43.0,6.4,42.0,6.99,13.92,47.59359,-54.27349
2022-10-07 16:44:00+00:00,40.0,6.3,37.0,6.79,13.92,47.59359,-54.27349
2022-10-07 16:54:00+00:00,34.0,7.21,34.0,8.08,13.92,47.59359,-54.27349
2022-10-07 17:04:00+00:00,40.0,6.82,47.0,7.62,13.92,47.59359,-54.27349
2022-10-07 17:14:00+00:00,38.0,6.18,36.0,6.69,13.84,47.59359,-54.27349
2022-10-07 17:24:00+00:00,42.0,5.27,42.0,6.06,13.84,47.59359,-54.27349
2022-10-07 17:34:00+00:00,47.0,4.63,47.0,5.27,13.84,47.59359,-54.27349
2022-10-07 17:44:00+00:00,51.0,5.25,51.0,5.99,13.84,47.59359,-54.27349
2022-10-07 17:54:00+00:00,50.0,6.42,53.0,7.36,13.84,47.59359,-54.27349
2022-10-07 18:04:00+00:00,36.0,6.83,38.0,7.49,13.84,47.59359,-54.27349
2022-10-07 18:14:01+00:00,35.0,6.75,37.0,7.25,14.24,47.59359,-54.27349
2022-10-07 18:24:01+00:00,34.0,6.99,34.0,7.56,14.24,47.59359,-54.27349
2022-10-07 18:34:01+00:00,35.0,6.3,37.0,7.14,14.24,47.59359,-54.27349
2022-10-07 18:44:01+00:00,36.0,6.45,38.0,7.53,14.24,47.59359,-54.27349
2022-10-07 18:54:01+00:00,38.0,5.95,35.0,6.7,14.24,47.59359,-54.27349
2022-10-07 19:04:01+00:00,37.0,5.26,37.0,6.01,14.24,47.59359,-54.27349
2022-10-07 19:14:01+00:00,40.0,5.1,38.0,5.67,13.84,47.59359,-54.27349
2022-10-07 19:24:01+00:00,37.0,7.42,44.0,8.18,13.84,47.59359,-54.27349
2022-10-07 19:34:01+00:00,44.0,7.91,47.0,9.71,13.84,47.59359,-54.27349
2022-10-07 19:44:01+00:00,43.0,6.74,44.0,7.83,13.84,47.59359,-54.27349
2022-10-07 19:54:01+00:00,47.0,7.74,52.0,10.07,13.84,47.59359,-54.27349
2022-10-07 20:04:01+00:00,48.0,8.24,52.0,10.17,13.84,47.59359,-54.27349
2022-10-07 20:14:01+00:00,50.0,8.22,47.0,9.38,13.76,47.59359,-54.27349
2022-10-07 20:24:01+00:00,50.0,7.55,47.0,8.75,13.76,47.59359,-54.27349
2022-10-07 20:34:01+00:00,52.0,6.68,54.0,7.67,13.76,47.59359,-54.27349
2022-10-07 20:44:01+00:00,44.0,7.46,47.0,8.44,13.76,47.59359,-54.27349
2022-10-07 20:54:01+00:00,41.0,9.46,47.0,11.26,13.76,47.59359,-54.27349
2022-10-07 21:04:01+00:00,45.0,9.37,48.0,11.02,13.76,47.59359,-54.27349
2022-10-07 21:14:00+00:00,44.0,8.91,48.0,10.47,13.05,47.59359,-54.27349
2022-10-07 21:24:00+00:00,49.0,7.94,50.0,9.11,13.05,47.59359,-54.27349
2022-10-07 21:34:00+00:00,48.0,7.9,50.0,9.58,13.05,47.59359,-54.27349
2022-10-07 21:44:00+00:00,51.0,10.86,50.0,12.42,13.05,47.59359,-54.27349
2022-10-07 21:54:00+00:00,51.0,11.7,52.0,12.97,13.05,47.59359,-54.27349
2022-10-07 22:04:00+00:00,47.0,11.54,50.0,13.36,13.05,47.59359,-54.27349
2022-10-07 22:14:00+00:00,45.0,11.71,47.0,12.72,12.57,47.59359,-54.27349
2022-10-07 22:24:00+00:00,48.0,11.44,49.0,12.44,12.57,47.59359,-54.27349
2022-10-07 22:34:00+00:00,49.0,10.74,49.0,12.22,12.57,47.59359,-54.27349
2022-10-07 22:44:00+00:00,51.0,11.21,52.0,12.31,12.57,47.59359,-54.27349
2022-10-07 22:54:00+00:00,49.0,10.21,50.0,12.34,12.57,47.59359,-54.27349
2022-10-07 23:04:00+00:00,50.0,10.85,52.0,12.28,12.57,47.59359,-54.27349
2022-10-07 23:14:00+00:00,45.0,9.79,49.0,10.88,12.57,47.59359,-54.27349
2022-10-07 23:24:00+00:00,44.0,9.91,51.0,12.18,12.57,47.59359,-54.27349
2022-10-07 23:34:00+00:00,44.0,10.23,52.0,11.56,12.57,47.59359,-54.27349
2022-10-07 23:44:00+00:00,48.0,8.08,51.0,9.26,12.57,47.59359,-54.27349
2022-10-07 23:54:00+00:00,49.0,8.33,51.0,9.3,12.57,47.59359,-54.27349
